Time,TemperatureF,DewpointF,PressureIn,WindDirection,WindDirectionDegrees,WindSpeedMPH,WindSpeedGustMPH,Humidity,HourlyPrecipIn,Conditions,Clouds,dailyrainin,SoftwareType,DateUTC
2013-04-02 00:00:00,53.4,41.6,30.03,SSW,202,6.9,16.6,64,0.00,,,0.00,WUHU21623XXSP,2013-04-02 07:00:00,
2013-04-02 00:05:00,53.2,41.4,30.04,SW,225,7.6,13.2,64,0.00,,,0.00,WUHU21623XXSP,2013-04-02 07:05:00,
2013-04-02 00:10:00,53.1,41.7,30.04,SSW,202,12.5,13.2,65,0.00,,,0.00,WUHU21623XXSP,2013-04-02 07:10:00,
2013-04-02 00:15:00,52.7,41.3,30.04,SSW,202,6.5,12.5,65,0.00,,,0.00,WUHU21623XXSP,2013-04-02 07:15:00,
2013-04-02 00:20:00,52.2,41.2,30.04,SSW,202,8.1,9.4,66,0.00,,,0.00,WUHU21623XXSP,2013-04-02 07:20:00,
2013-04-02 00:25:00,51.6,40.6,30.04,SW,225,8.5,8.5,66,0.00,,,0.00,WUHU21623XXSP,2013-04-02 07:25:00,
2013-04-02 00:30:00,50.9,40.0,30.04,SSW,202,4.9,8.5,66,0.00,,,0.00,WUHU21623XXSP,2013-04-02 07:30:00,
2013-04-02 00:35:00,50.5,40.0,30.04,SSW,202,6.7,7.6,67,0.00,,,0.00,WUHU21623XXSP,2013-04-02 07:35:00,
2013-04-02 00:40:00,50.0,39.9,30.04,SW,225,4.5,6.7,68,0.00,,,0.00,WUHU21623XXSP,2013-04-02 07:40:00,
2013-04-02 00:45:00,49.6,39.9,30.05,SSW,202,7.4,7.4,69,0.00,,,0.00,WUHU21623XXSP,2013-04-02 07:45:00,
2013-04-02 00:50:00,49.3,39.6,30.05,SSW,202,0.7,7.4,69,0.00,,,0.00,WUHU21623XXSP,2013-04-02 07:50:00,
2013-04-02 00:55:00,48.9,39.6,30.05,SSW,202,5.1,7.6,70,0.00,,,0.00,WUHU21623XXSP,2013-04-02 07:55:00,
2013-04-02 01:00:00,48.6,39.6,30.05,SSW,202,6.3,7.6,71,0.00,,,0.00,WUHU21623XXSP,2013-04-02 08:00:00,
2013-04-02 01:05:00,48.4,39.8,30.05,SSW,202,8.7,8.7,72,0.00,,,0.00,WUHU21623XXSP,2013-04-02 08:05:00,
2013-04-02 01:10:00,48.6,40.7,30.05,SSW,202,7.2,10.3,74,0.00,,,0.00,WUHU21623XXSP,2013-04-02 08:10:00,
2013-04-02 01:15:00,48.6,41.0,30.05,South,180,8.9,10.3,75,0.00,,,0.00,WUHU21623XXSP,2013-04-02 08:15:00,
2013-04-02 01:20:00,48.4,40.5,30.06,South,180,7.4,10.1,74,0.00,,,0.00,WUHU21623XXSP,2013-04-02 08:20:00,
2013-04-02 01:25:00,48.0,40.1,30.06,SSW,202,10.5,10.5,74,0.00,,,0.00,WUHU21623XXSP,2013-04-02 08:25:00,
2013-04-02 01:30:00,47.8,40.6,30.06,South,180,12.3,13.2,76,0.00,,,0.00,WUHU21623XXSP,2013-04-02 08:30:00,
2013-04-02 01:35:00,47.7,40.5,30.06,South,180,11.6,15.2,76,0.00,,,0.00,WUHU21623XXSP,2013-04-02 08:35:00,
2013-04-02 01:40:00,47.5,40.6,30.06,SSW,202,9.8,15.2,77,0.00,,,0.00,WUHU21623XXSP,2013-04-02 08:40:00,
2013-04-02 01:45:00,47.1,40.6,30.06,South,180,7.6,14.5,78,0.00,,,0.00,WUHU21623XXSP,2013-04-02 08:45:00,
2013-04-02 01:50:00,46.9,40.7,30.06,South,180,9.8,14.5,79,0.00,,,0.00,WUHU21623XXSP,2013-04-02 08:50:00,
2013-04-02 01:55:00,46.6,40.7,30.06,SSW,202,11.6,14.1,80,0.00,,,0.00,WUHU21623XXSP,2013-04-02 08:55:00,
2013-04-02 02:00:00,46.2,40.6,30.06,South,180,14.8,14.8,81,0.00,,,0.00,WUHU21623XXSP,2013-04-02 09:00:00,
2013-04-02 02:05:00,46.0,40.8,30.05,SSW,202,11.4,14.8,82,0.00,,,0.00,WUHU21623XXSP,2013-04-02 09:05:00,
2013-04-02 02:10:00,45.7,40.8,30.06,SSW,202,13.6,13.6,83,0.00,,,0.00,WUHU21623XXSP,2013-04-02 09:10:00,
2013-04-02 02:15:00,45.3,40.7,30.06,South,180,13.4,13.6,84,0.00,,,0.00,WUHU21623XXSP,2013-04-02 09:15:00,
2013-04-02 02:20:00,45.1,41.1,30.06,South,180,13.4,15.0,86,0.00,,,0.00,WUHU21623XXSP,2013-04-02 09:20:00,
2013-04-02 02:25:00,45.0,41.3,30.06,SSW,202,19.5,19.5,87,0.00,,,0.00,WUHU21623XXSP,2013-04-02 09:25:00,
2013-04-02 02:30:00,44.8,41.4,30.06,South,180,16.6,19.5,88,0.00,,,0.00,WUHU21623XXSP,2013-04-02 09:30:00,
2013-04-02 02:35:00,44.6,41.5,30.06,SSE,157,12.1,16.6,89,0.00,,,0.00,WUHU21623XXSP,2013-04-02 09:35:00,
2013-04-02 02:40:00,44.4,41.6,30.06,South,180,9.2,16.6,90,0.00,,,0.00,WUHU21623XXSP,2013-04-02 09:40:00,
2013-04-02 02:45:00,44.1,41.0,30.07,SSE,157,0.0,9.2,89,0.00,,,0.00,WUHU21623XXSP,2013-04-02 09:45:00,
2013-04-02 02:50:00,43.9,40.8,30.07,SSE,157,0.0,7.8,89,0.00,,,0.00,WUHU21623XXSP,2013-04-02 09:50:00,
2013-04-02 02:55:00,43.5,40.4,30.07,NNW,337,0.0,0.0,89,0.00,,,0.00,WUHU21623XXSP,2013-04-02 09:55:00,
2013-04-02 03:00:00,43.3,40.5,30.07,South,180,4.3,9.2,90,0.00,,,0.00,WUHU21623XXSP,2013-04-02 10:00:00,
2013-04-02 03:05:00,43.3,40.5,30.08,South,180,0.0,9.2,90,0.00,,,0.00,WUHU21623XXSP,2013-04-02 10:05:00,
2013-04-02 03:10:00,43.2,40.1,30.08,SSE,157,5.1,5.1,89,0.00,,,0.00,WUHU21623XXSP,2013-04-02 10:10:00,
2013-04-02 03:15:00,43.0,40.7,30.08,SSE,157,9.4,9.4,92,0.00,,,0.00,WUHU21623XXSP,2013-04-02 10:15:00,
2013-04-02 03:20:00,43.3,41.3,30.07,SSE,157,11.2,13.4,93,0.00,,,0.00,WUHU21623XXSP,2013-04-02 10:20:00,
2013-04-02 03:25:00,43.2,41.2,30.07,South,180,10.1,13.4,93,0.00,,,0.00,WUHU21623XXSP,2013-04-02 10:25:00,
2013-04-02 03:30:00,43.3,41.6,30.07,South,180,8.7,12.8,94,0.00,,,0.00,WUHU21623XXSP,2013-04-02 10:30:00,
2013-04-02 03:35:00,43.2,41.2,30.08,South,180,6.5,12.8,93,0.00,,,0.00,WUHU21623XXSP,2013-04-02 10:35:00,
2013-04-02 03:40:00,43.2,41.5,30.08,South,180,11.4,13.0,94,0.00,,,0.00,WUHU21623XXSP,2013-04-02 10:40:00,
2013-04-02 03:45:00,43.0,41.3,30.08,South,180,9.2,13.0,94,0.00,,,0.00,WUHU21623XXSP,2013-04-02 10:45:00,
2013-04-02 03:50:00,43.2,41.5,30.08,SSE,157,8.3,13.4,94,0.00,,,0.00,WUHU21623XXSP,2013-04-02 10:50:00,
2013-04-02 03:55:00,43.2,41.5,30.08,SSE,157,10.1,13.4,94,0.00,,,0.00,WUHU21623XXSP,2013-04-02 10:55:00,
2013-04-02 04:00:00,43.2,41.5,30.08,SSE,157,8.1,11.9,94,0.00,,,0.00,WUHU21623XXSP,2013-04-02 11:00:00,
2013-04-02 04:05:00,43.0,41.3,30.08,South,180,6.9,11.9,94,0.00,,,0.00,WUHU21623XXSP,2013-04-02 11:05:00,
2013-04-02 04:10:00,43.0,41.3,30.08,South,180,15.7,15.7,94,0.00,,,0.00,WUHU21623XXSP,2013-04-02 11:10:00,
2013-04-02 04:15:00,42.6,40.9,30.08,SSE,157,6.9,15.7,94,0.00,,,0.00,WUHU21623XXSP,2013-04-02 11:15:00,
2013-04-02 04:20:00,42.6,40.9,30.08,South,180,7.8,10.1,94,0.00,,,0.00,WUHU21623XXSP,2013-04-02 11:20:00,
2013-04-02 04:25:00,42.6,40.9,30.09,South,180,9.8,9.8,94,0.00,,,0.00,WUHU21623XXSP,2013-04-02 11:25:00,
2013-04-02 04:30:00,42.4,41.0,30.09,SSE,157,10.7,10.7,95,0.00,,,0.00,WUHU21623XXSP,2013-04-02 11:30:00,
2013-04-02 04:35:00,42.4,41.0,30.09,South,180,12.8,12.8,95,0.00,,,0.00,WUHU21623XXSP,2013-04-02 11:35:00,
2013-04-02 04:40:00,42.4,41.0,30.09,South,180,12.8,12.8,95,0.00,,,0.00,WUHU21623XXSP,2013-04-02 11:40:00,
2013-04-02 04:45:00,42.4,41.0,30.09,SSW,202,11.9,14.8,95,0.00,,,0.00,WUHU21623XXSP,2013-04-02 11:45:00,
2013-04-02 04:50:00,42.3,40.9,30.09,South,180,11.2,14.8,95,0.00,,,0.00,WUHU21623XXSP,2013-04-02 11:50:00,
2013-04-02 04:55:00,42.1,40.7,30.09,SSE,157,8.9,13.2,95,0.00,,,0.00,WUHU21623XXSP,2013-04-02 11:55:00,
2013-04-02 05:00:00,42.1,40.7,30.09,South,180,13.6,14.1,95,0.00,,,0.00,WUHU21623XXSP,2013-04-02 12:00:00,
2013-04-02 05:05:00,41.9,40.5,30.09,South,180,11.9,14.1,95,0.00,,,0.00,WUHU21623XXSP,2013-04-02 12:05:00,
2013-04-02 05:10:00,41.9,40.5,30.09,South,180,15.9,15.9,95,0.00,,,0.00,WUHU21623XXSP,2013-04-02 12:10:00,
2013-04-02 05:15:00,41.7,40.3,30.09,South,180,12.1,15.9,95,0.00,,,0.00,WUHU21623XXSP,2013-04-02 12:15:00,
2013-04-02 05:20:00,41.7,40.3,30.09,South,180,8.1,12.5,95,0.00,,,0.00,WUHU21623XXSP,2013-04-02 12:20:00,
2013-04-02 05:25:00,41.5,40.1,30.09,South,180,12.3,12.3,95,0.00,,,0.00,WUHU21623XXSP,2013-04-02 12:25:00,
2013-04-02 05:30:00,41.4,40.0,30.10,South,180,9.2,12.3,95,0.00,,,0.00,WUHU21623XXSP,2013-04-02 12:30:00,
2013-04-02 05:35:00,41.4,40.0,30.10,South,180,7.8,9.2,95,0.00,,,0.00,WUHU21623XXSP,2013-04-02 12:35:00,
2013-04-02 05:40:00,41.2,39.8,30.10,South,180,8.3,10.3,95,0.00,,,0.00,WUHU21623XXSP,2013-04-02 12:40:00,
2013-04-02 05:45:00,41.2,40.1,30.10,SSE,157,8.1,10.3,96,0.00,,,0.00,WUHU21623XXSP,2013-04-02 12:45:00,
2013-04-02 05:50:00,41.2,40.1,30.10,SSE,157,8.7,8.7,96,0.00,,,0.00,WUHU21623XXSP,2013-04-02 12:50:00,
2013-04-02 05:55:00,41.2,40.1,30.10,SSE,157,7.2,12.5,96,0.00,,,0.00,WUHU21623XXSP,2013-04-02 12:55:00,
2013-04-02 06:00:00,41.2,40.1,30.10,SSE,157,5.4,12.5,96,0.00,,,0.00,WUHU21623XXSP,2013-04-02 13:00:00,
2013-04-02 06:05:00,41.0,39.9,30.10,SSE,157,8.3,11.6,96,0.00,,,0.00,WUHU21623XXSP,2013-04-02 13:05:00,
2013-04-02 06:10:00,40.8,39.7,30.10,South,180,6.7,8.9,96,0.00,,,0.00,WUHU21623XXSP,2013-04-02 13:10:00,
2013-04-02 06:15:00,40.8,39.7,30.10,South,180,9.2,9.2,96,0.00,,,0.00,WUHU21623XXSP,2013-04-02 13:15:00,
2013-04-02 06:20:00,40.8,39.7,30.10,South,180,8.5,9.2,96,0.00,,,0.00,WUHU21623XXSP,2013-04-02 13:20:00,
2013-04-02 06:25:00,40.8,39.7,30.11,SSE,157,6.9,8.7,96,0.00,,,0.00,WUHU21623XXSP,2013-04-02 13:25:00,
2013-04-02 06:30:00,40.8,39.7,30.11,SSE,157,8.1,11.6,96,0.00,,,0.00,WUHU21623XXSP,2013-04-02 13:30:00,
2013-04-02 06:35:00,40.8,39.7,30.11,South,180,6.9,11.6,96,0.00,,,0.00,WUHU21623XXSP,2013-04-02 13:35:00,
2013-04-02 06:40:00,40.8,39.7,30.11,South,180,10.5,10.5,96,0.00,,,0.00,WUHU21623XXSP,2013-04-02 13:40:00,
2013-04-02 06:45:00,41.2,40.1,30.11,SSE,157,8.9,10.5,96,0.00,,,0.00,WUHU21623XXSP,2013-04-02 13:45:00,
2013-04-02 06:50:00,41.5,40.4,30.11,SSE,157,10.1,10.1,96,0.00,,,0.00,WUHU21623XXSP,2013-04-02 13:50:00,
2013-04-02 06:55:00,41.5,40.4,30.11,SSE,157,7.8,10.1,96,0.00,,,0.00,WUHU21623XXSP,2013-04-02 13:55:00,
2013-04-02 07:00:00,41.2,40.1,30.12,SSE,157,10.3,10.3,96,0.00,,,0.00,WUHU21623XXSP,2013-04-02 14:00:00,
2013-04-02 07:05:00,41.5,40.4,30.12,SSE,157,7.6,10.3,96,0.00,,,0.00,WUHU21623XXSP,2013-04-02 14:05:00,
2013-04-02 07:10:00,43.0,41.6,30.12,SSE,157,9.6,9.6,95,0.00,,,0.00,WUHU21623XXSP,2013-04-02 14:10:00,
2013-04-02 07:15:00,43.9,42.2,30.12,SSE,157,6.9,9.6,94,0.00,,,0.00,WUHU21623XXSP,2013-04-02 14:15:00,
2013-04-02 07:20:00,44.8,42.8,30.12,SSE,157,8.1,9.8,93,0.00,,,0.00,WUHU21623XXSP,2013-04-02 14:20:00,
2013-04-02 07:25:00,45.7,42.8,30.12,SSE,157,6.7,9.8,90,0.00,,,0.00,WUHU21623XXSP,2013-04-02 14:25:00,
2013-04-02 07:30:00,45.0,42.1,30.12,SSE,157,8.7,8.9,90,0.00,,,0.00,WUHU21623XXSP,2013-04-02 14:30:00,
2013-04-02 07:35:00,44.1,41.3,30.12,SSE,157,10.3,10.3,90,0.00,,,0.00,WUHU21623XXSP,2013-04-02 14:35:00,
2013-04-02 07:40:00,44.4,42.1,30.13,SSE,157,7.8,10.7,92,0.00,,,0.00,WUHU21623XXSP,2013-04-02 14:40:00,
2013-04-02 07:45:00,45.3,42.7,30.13,South,180,11.6,11.6,91,0.00,,,0.00,WUHU21623XXSP,2013-04-02 14:45:00,
2013-04-02 07:50:00,46.6,43.7,30.13,SSE,157,10.5,11.6,90,0.00,,,0.00,WUHU21623XXSP,2013-04-02 14:50:00,
2013-04-02 07:55:00,47.5,44.0,30.13,South,180,5.6,10.5,88,0.00,,,0.00,WUHU21623XXSP,2013-04-02 14:55:00,
2013-04-02 08:00:00,47.1,43.3,30.13,SSE,157,7.2,8.5,87,0.00,,,0.00,WUHU21623XXSP,2013-04-02 15:00:00,
2013-04-02 08:05:00,46.2,42.8,30.13,SSE,157,9.6,9.6,88,0.00,,,0.00,WUHU21623XXSP,2013-04-02 15:05:00,
2013-04-02 08:10:00,45.5,42.6,30.13,South,180,8.1,12.5,90,0.00,,,0.00,WUHU21623XXSP,2013-04-02 15:10:00,
2013-04-02 08:15:00,45.7,42.8,30.13,South,180,10.7,12.5,90,0.00,,,0.00,WUHU21623XXSP,2013-04-02 15:15:00,
2013-04-02 08:20:00,47.1,44.5,30.13,South,180,7.6,10.7,91,0.00,,,0.00,WUHU21623XXSP,2013-04-02 15:20:00,
2013-04-02 08:25:00,48.0,44.2,30.13,SSE,157,8.3,8.5,87,0.00,,,0.00,WUHU21623XXSP,2013-04-02 15:25:00,
2013-04-02 08:30:00,47.7,44.2,30.13,SSE,157,9.8,9.8,88,0.00,,,0.00,WUHU21623XXSP,2013-04-02 15:30:00,
2013-04-02 08:35:00,47.1,43.3,30.13,SSE,157,6.9,10.3,87,0.00,,,0.00,WUHU21623XXSP,2013-04-02 15:35:00,
2013-04-02 08:40:00,48.4,44.9,30.13,SSE,157,8.5,10.3,88,0.00,,,0.00,WUHU21623XXSP,2013-04-02 15:40:00,
2013-04-02 08:45:00,49.6,45.8,30.13,SSE,157,3.1,8.5,87,0.00,,,0.00,WUHU21623XXSP,2013-04-02 15:45:00,
2013-04-02 08:50:00,51.4,46.4,30.13,South,180,9.6,9.6,83,0.00,,,0.00,WUHU21623XXSP,2013-04-02 15:50:00,
2013-04-02 08:56:00,51.4,46.0,30.13,SSE,157,8.7,9.6,82,0.00,,,0.00,WUHU21623XXSP,2013-04-02 15:56:00,
2013-04-02 09:01:00,51.8,46.1,30.13,South,180,9.4,9.4,81,0.00,,,0.00,WUHU21623XXSP,2013-04-02 16:01:00,
2013-04-02 09:06:00,52.9,46.9,30.13,SSE,157,8.9,9.4,80,0.00,,,0.00,WUHU21623XXSP,2013-04-02 16:06:00,
2013-04-02 09:11:00,53.2,46.8,30.13,South,180,8.7,8.9,79,0.00,,,0.00,WUHU21623XXSP,2013-04-02 16:11:00,
2013-04-02 09:16:00,54.0,47.0,30.13,SSE,157,6.7,8.7,77,0.00,,,0.00,WUHU21623XXSP,2013-04-02 16:16:00,
2013-04-02 09:21:00,54.5,47.8,30.13,South,180,7.4,8.3,78,0.00,,,0.00,WUHU21623XXSP,2013-04-02 16:21:00,
2013-04-02 09:27:00,55.2,47.8,30.13,South,180,7.2,8.3,76,0.00,,,0.00,WUHU21623XXSP,2013-04-02 16:27:00,
2013-04-02 09:32:00,57.4,48.9,30.13,South,180,15.9,15.9,73,0.00,,,0.00,WUHU21623XXSP,2013-04-02 16:32:00,
2013-04-02 09:36:00,57.7,48.4,30.13,SSE,157,7.4,15.9,71,0.00,,,0.00,WUHU21623XXSP,2013-04-02 16:36:00,
2013-04-02 09:41:00,58.3,49.4,30.13,South,180,0.0,7.4,72,0.00,,,0.00,WUHU21623XXSP,2013-04-02 16:41:00,
2013-04-02 09:47:00,58.6,48.5,30.14,South,180,0.0,9.6,69,0.00,,,0.00,WUHU21623XXSP,2013-04-02 16:47:00,
2013-04-02 09:52:00,58.6,47.7,30.13,SSE,157,6.7,9.6,67,0.00,,,0.00,WUHU21623XXSP,2013-04-02 16:52:00,
2013-04-02 09:57:00,57.7,47.7,30.13,South,180,6.9,12.5,69,0.00,,,0.00,WUHU21623XXSP,2013-04-02 16:57:00,
2013-04-02 10:02:00,57.9,47.1,30.13,South,180,8.1,12.5,67,0.00,,,0.00,WUHU21623XXSP,2013-04-02 17:02:00,
2013-04-02 10:07:00,57.4,47.0,30.13,South,180,12.3,12.5,68,0.00,,,0.00,WUHU21623XXSP,2013-04-02 17:07:00,
2013-04-02 10:12:00,57.4,47.4,30.13,South,180,11.0,12.5,69,0.00,,,0.00,WUHU21623XXSP,2013-04-02 17:12:00,
2013-04-02 10:17:00,58.8,48.7,30.13,SSW,202,5.6,11.0,69,0.00,,,0.00,WUHU21623XXSP,2013-04-02 17:17:00,
2013-04-02 10:22:00,58.8,47.5,30.13,SSE,157,11.9,11.9,66,0.00,,,0.00,WUHU21623XXSP,2013-04-02 17:22:00,
2013-04-02 10:27:00,57.9,47.5,30.13,South,180,9.8,11.9,68,0.00,,,0.00,WUHU21623XXSP,2013-04-02 17:27:00,
2013-04-02 10:32:00,58.6,48.1,30.13,SSE,157,6.5,9.8,68,0.00,,,0.00,WUHU21623XXSP,2013-04-02 17:32:00,
2013-04-02 10:37:00,59.5,49.0,30.13,South,180,6.9,13.2,68,0.00,,,0.00,WUHU21623XXSP,2013-04-02 17:37:00,
2013-04-02 10:42:00,59.4,48.1,30.13,SSE,157,8.1,13.2,66,0.00,,,0.00,WUHU21623XXSP,2013-04-02 17:42:00,
2013-04-02 10:47:00,58.8,48.3,30.13,SSW,202,7.4,12.8,68,0.00,,,0.00,WUHU21623XXSP,2013-04-02 17:47:00,
2013-04-02 10:52:00,59.2,47.9,30.13,South,180,10.3,12.8,66,0.00,,,0.00,WUHU21623XXSP,2013-04-02 17:52:00,
2013-04-02 10:57:00,59.5,47.8,30.13,South,180,9.4,12.5,65,0.00,,,0.00,WUHU21623XXSP,2013-04-02 17:57:00,
2013-04-02 11:02:00,60.6,48.8,30.13,SW,225,13.0,15.4,65,0.00,,,0.00,WUHU21623XXSP,2013-04-02 18:02:00,
2013-04-02 11:04:00,61.3,49.1,30.13,WSW,247,7.2,15.4,64,0.00,,,0.00,WUHU21623XXSP,2013-04-02 18:04:00,
2013-04-02 11:07:00,61.9,49.7,30.13,South,180,11.2,15.4,64,0.00,,,0.00,WUHU21623XXSP,2013-04-02 18:07:00,
2013-04-02 11:12:00,63.3,50.6,30.13,SSW,202,9.6,14.8,63,0.00,,,0.00,WUHU21623XXSP,2013-04-02 18:12:00,
2013-04-02 11:17:00,64.0,50.8,30.13,SSW,202,15.2,15.2,62,0.00,,,0.00,WUHU21623XXSP,2013-04-02 18:17:00,
2013-04-02 11:22:00,63.7,49.6,30.13,South,180,14.1,15.2,60,0.00,,,0.00,WUHU21623XXSP,2013-04-02 18:22:00,
2013-04-02 11:27:00,61.7,48.2,30.12,SSW,202,9.8,14.3,61,0.00,,,0.00,WUHU21623XXSP,2013-04-02 18:27:00,
2013-04-02 11:33:00,61.7,48.6,30.12,SSW,202,13.0,17.7,62,0.00,,,0.00,WUHU21623XXSP,2013-04-02 18:33:00,
2013-04-02 11:38:00,62.4,49.3,30.12,SSW,202,15.7,17.7,62,0.00,,,0.00,WUHU21623XXSP,2013-04-02 18:38:00,
2013-04-02 11:43:00,63.5,50.3,30.12,SW,225,9.6,17.4,62,0.00,,,0.00,WUHU21623XXSP,2013-04-02 18:43:00,
2013-04-02 11:48:00,64.0,49.9,30.12,SSW,202,16.6,16.6,60,0.00,,,0.00,WUHU21623XXSP,2013-04-02 18:48:00,
2013-04-02 11:53:00,64.2,50.1,30.12,SW,225,17.2,17.2,60,0.00,,,0.00,WUHU21623XXSP,2013-04-02 18:53:00,
2013-04-02 11:58:00,64.4,50.3,30.12,South,180,11.9,17.2,60,0.00,,,0.00,WUHU21623XXSP,2013-04-02 18:58:00,
2013-04-02 12:03:00,64.2,50.1,30.12,SW,225,10.7,16.8,60,0.00,,,0.00,WUHU21623XXSP,2013-04-02 19:03:00,
2013-04-02 12:08:00,64.0,49.9,30.12,SSW,202,10.5,16.8,60,0.00,,,0.00,WUHU21623XXSP,2013-04-02 19:08:00,
2013-04-02 12:13:00,64.2,50.1,30.12,South,180,15.0,16.3,60,0.00,,,0.00,WUHU21623XXSP,2013-04-02 19:13:00,
2013-04-02 12:18:00,63.9,49.8,30.12,SSW,202,13.9,15.0,60,0.00,,,0.00,WUHU21623XXSP,2013-04-02 19:18:00,
2013-04-02 12:23:00,64.0,49.4,30.12,SSW,202,8.3,14.1,59,0.00,,,0.00,WUHU21623XXSP,2013-04-02 19:23:00,
2013-04-02 12:29:00,64.0,49.4,30.11,WSW,247,13.9,14.1,59,0.00,,,0.00,WUHU21623XXSP,2013-04-02 19:29:00,
2013-04-02 12:34:00,64.0,49.4,30.12,WSW,247,10.5,14.5,59,0.00,,,0.00,WUHU21623XXSP,2013-04-02 19:34:00,
2013-04-02 12:39:00,63.7,49.1,30.12,SW,225,14.1,14.5,59,0.00,,,0.00,WUHU21623XXSP,2013-04-02 19:39:00,
2013-04-02 12:44:00,63.7,49.1,30.12,WSW,247,16.1,16.1,59,0.00,,,0.00,WUHU21623XXSP,2013-04-02 19:44:00,
2013-04-02 12:49:00,63.1,48.6,30.11,WSW,247,13.0,17.7,59,0.00,,,0.00,WUHU21623XXSP,2013-04-02 19:49:00,
2013-04-02 12:54:00,63.3,48.8,30.11,WSW,247,11.4,17.7,59,0.00,,,0.00,WUHU21623XXSP,2013-04-02 19:54:00,
2013-04-02 12:59:00,64.0,49.4,30.11,SSW,202,17.2,17.2,59,0.00,,,0.00,WUHU21623XXSP,2013-04-02 19:59:00,
2013-04-02 13:04:00,63.7,48.7,30.11,SSW,202,5.6,17.2,58,0.00,,,0.00,WUHU21623XXSP,2013-04-02 20:04:00,
2013-04-02 13:10:00,63.7,48.7,30.11,South,180,14.1,17.2,58,0.00,,,0.00,WUHU21623XXSP,2013-04-02 20:10:00,
2013-04-02 13:15:00,63.0,48.0,30.11,SW,225,13.4,14.1,58,0.00,,,0.00,WUHU21623XXSP,2013-04-02 20:15:00,
2013-04-02 13:20:00,63.1,48.1,30.11,SSW,202,12.5,13.4,58,0.00,,,0.00,WUHU21623XXSP,2013-04-02 20:20:00,
2013-04-02 13:25:00,63.5,48.5,30.11,SW,225,12.8,15.7,58,0.00,,,0.00,WUHU21623XXSP,2013-04-02 20:25:00,
2013-04-02 13:30:00,64.0,48.0,30.11,SW,225,18.3,18.3,56,0.00,,,0.00,WUHU21623XXSP,2013-04-02 20:30:00,
2013-04-02 13:35:00,63.9,47.9,30.11,WSW,247,19.0,19.0,56,0.00,,,0.00,WUHU21623XXSP,2013-04-02 20:35:00,
2013-04-02 13:40:00,64.0,48.0,30.11,SW,225,8.1,19.0,56,0.00,,,0.00,WUHU21623XXSP,2013-04-02 20:40:00,
2013-04-02 13:45:00,64.0,48.0,30.10,SW,225,3.4,18.6,56,0.00,,,0.00,WUHU21623XXSP,2013-04-02 20:45:00,
2013-04-02 13:50:00,64.0,48.0,30.10,WSW,247,13.6,13.6,56,0.00,,,0.00,WUHU21623XXSP,2013-04-02 20:50:00,
2013-04-02 13:55:00,64.2,47.7,30.11,WSW,247,15.9,19.0,55,0.00,,,0.00,WUHU21623XXSP,2013-04-02 20:55:00,
2013-04-02 14:00:00,64.8,48.3,30.10,WSW,247,6.9,19.0,55,0.00,,,0.00,WUHU21623XXSP,2013-04-02 21:00:00,
2013-04-02 14:05:00,65.3,48.7,30.10,SW,225,9.2,18.8,55,0.00,,,0.00,WUHU21623XXSP,2013-04-02 21:05:00,
2013-04-02 14:10:00,65.1,48.5,30.10,WSW,247,9.4,18.8,55,0.00,,,0.00,WUHU21623XXSP,2013-04-02 21:10:00,
2013-04-02 14:15:00,65.3,48.2,30.10,SSW,202,13.6,13.6,54,0.00,,,0.00,WUHU21623XXSP,2013-04-02 21:15:00,
2013-04-02 14:20:00,65.1,48.5,30.10,WSW,247,16.1,16.1,55,0.00,,,0.00,WUHU21623XXSP,2013-04-02 21:20:00,
2013-04-02 14:25:00,64.8,47.2,30.09,WSW,247,7.4,18.6,53,0.00,,,0.00,WUHU21623XXSP,2013-04-02 21:25:00,
2013-04-02 14:31:00,64.6,48.1,30.09,WSW,247,7.4,18.6,55,0.00,,,0.00,WUHU21623XXSP,2013-04-02 21:31:00,
2013-04-02 14:36:00,65.1,48.0,30.09,WSW,247,6.0,13.6,54,0.00,,,0.00,WUHU21623XXSP,2013-04-02 21:36:00,
2013-04-02 14:42:00,65.3,48.2,30.09,WSW,247,12.5,13.6,54,0.00,,,0.00,WUHU21623XXSP,2013-04-02 21:42:00,
2013-04-02 14:47:00,65.5,47.4,30.09,WSW,247,14.5,17.2,52,0.00,,,0.00,WUHU21623XXSP,2013-04-02 21:47:00,
2013-04-02 14:52:00,65.5,47.4,30.09,WSW,247,11.2,17.2,52,0.00,,,0.00,WUHU21623XXSP,2013-04-02 21:52:00,
2013-04-02 14:57:00,65.5,47.4,30.09,WSW,247,11.2,14.5,52,0.00,,,0.00,WUHU21623XXSP,2013-04-02 21:57:00,
2013-04-02 15:03:00,65.5,47.4,30.08,WSW,247,13.2,13.2,52,0.00,,,0.00,WUHU21623XXSP,2013-04-02 22:03:00,
2013-04-02 15:08:00,65.7,47.6,30.09,SSW,202,16.1,21.5,52,0.00,,,0.00,WUHU21623XXSP,2013-04-02 22:08:00,
2013-04-02 15:13:00,65.5,47.4,30.08,SSW,202,16.1,21.5,52,0.00,,,0.00,WUHU21623XXSP,2013-04-02 22:13:00,
2013-04-02 15:18:00,65.1,47.0,30.08,South,180,16.8,16.8,52,0.00,,,0.00,WUHU21623XXSP,2013-04-02 22:18:00,
2013-04-02 15:23:00,64.9,47.3,30.09,SW,225,12.1,16.8,53,0.00,,,0.00,WUHU21623XXSP,2013-04-02 22:23:00,
2013-04-02 15:28:00,64.9,46.8,30.09,SW,225,18.1,18.1,52,0.00,,,0.00,WUHU21623XXSP,2013-04-02 22:28:00,
2013-04-02 15:33:00,64.6,46.5,30.09,SW,225,17.4,18.1,52,0.00,,,0.00,WUHU21623XXSP,2013-04-02 22:33:00,
2013-04-02 15:38:00,64.6,47.1,30.08,SW,225,9.4,17.4,53,0.00,,,0.00,WUHU21623XXSP,2013-04-02 22:38:00,
2013-04-02 15:43:00,64.8,46.7,30.08,SSW,202,11.0,17.4,52,0.00,,,0.00,WUHU21623XXSP,2013-04-02 22:43:00,
2013-04-02 15:48:00,65.1,47.5,30.08,WSW,247,9.4,11.0,53,0.00,,,0.00,WUHU21623XXSP,2013-04-02 22:48:00,
2013-04-02 15:53:00,65.8,47.6,30.08,WSW,247,11.0,15.4,52,0.00,,,0.00,WUHU21623XXSP,2013-04-02 22:53:00,
2013-04-02 15:58:00,66.0,47.3,30.08,WSW,247,11.9,15.4,51,0.00,,,0.00,WUHU21623XXSP,2013-04-02 22:58:00,
2013-04-02 16:03:00,66.0,47.3,30.07,WSW,247,12.5,12.5,51,0.00,,,0.00,WUHU21623XXSP,2013-04-02 23:03:00,
2013-04-02 16:08:00,66.0,47.3,30.07,WSW,247,8.7,12.5,51,0.00,,,0.00,WUHU21623XXSP,2013-04-02 23:08:00,
2013-04-02 16:13:00,66.0,47.3,30.07,WSW,247,13.6,13.6,51,0.00,,,0.00,WUHU21623XXSP,2013-04-02 23:13:00,
2013-04-02 16:18:00,66.0,47.3,30.07,WSW,247,7.6,13.6,51,0.00,,,0.00,WUHU21623XXSP,2013-04-02 23:18:00,
2013-04-02 16:23:00,66.4,47.7,30.07,WSW,247,0.0,7.6,51,0.00,,,0.00,WUHU21623XXSP,2013-04-02 23:23:00,
2013-04-02 16:28:00,66.4,47.7,30.07,WSW,247,11.4,11.4,51,0.00,,,0.00,WUHU21623XXSP,2013-04-02 23:28:00,
2013-04-02 16:34:00,66.0,46.8,30.07,WSW,247,13.2,13.2,50,0.00,,,0.00,WUHU21623XXSP,2013-04-02 23:34:00,
2013-04-02 16:39:00,65.8,47.1,30.08,WSW,247,13.9,13.9,51,0.00,,,0.00,WUHU21623XXSP,2013-04-02 23:39:00,
2013-04-02 16:44:00,65.7,47.0,30.08,SW,225,6.3,13.9,51,0.00,,,0.00,WUHU21623XXSP,2013-04-02 23:44:00,
2013-04-02 16:49:00,65.1,46.5,30.08,SW,225,7.8,7.8,51,0.00,,,0.00,WUHU21623XXSP,2013-04-02 23:49:00,
2013-04-02 16:54:00,65.3,46.6,30.08,WSW,247,9.8,9.8,51,0.00,,,0.00,WUHU21623XXSP,2013-04-02 23:54:00,
2013-04-02 16:59:00,65.5,46.8,30.07,WSW,247,11.2,11.2,51,0.00,,,0.00,WUHU21623XXSP,2013-04-02 23:59:00,
2013-04-02 17:04:00,65.3,46.6,30.07,WSW,247,13.9,13.9,51,0.00,,,0.00,WUHU21623XXSP,2013-04-03 00:04:00,
2013-04-02 17:09:00,64.6,46.0,30.07,WSW,247,13.9,13.9,51,0.00,,,0.00,WUHU21623XXSP,2013-04-03 00:09:00,
2013-04-02 17:14:00,64.2,46.2,30.08,WSW,247,7.8,13.9,52,0.00,,,0.00,WUHU21623XXSP,2013-04-03 00:14:00,
2013-04-02 17:19:00,64.6,46.5,30.08,WSW,247,11.9,11.9,52,0.00,,,0.00,WUHU21623XXSP,2013-04-03 00:19:00,
2013-04-02 17:24:00,64.6,46.5,30.07,WSW,247,13.9,13.9,52,0.00,,,0.00,WUHU21623XXSP,2013-04-03 00:24:00,
2013-04-02 17:29:00,64.0,45.4,30.07,SSW,202,12.3,13.9,51,0.00,,,0.00,WUHU21623XXSP,2013-04-03 00:29:00,
2013-04-02 17:35:00,63.3,45.3,30.07,SSW,202,12.3,12.3,52,0.00,,,0.00,WUHU21623XXSP,2013-04-03 00:35:00,
2013-04-02 17:40:00,62.8,45.4,30.07,SSW,202,12.3,12.3,53,0.00,,,0.00,WUHU21623XXSP,2013-04-03 00:40:00,
2013-04-02 17:42:00,62.6,45.2,30.07,SW,225,10.3,12.3,53,0.00,,,0.00,WUHU21623XXSP,2013-04-03 00:42:00,
2013-04-02 17:45:00,62.4,45.0,30.07,SW,225,9.2,12.3,53,0.00,,,0.00,WUHU21623XXSP,2013-04-03 00:45:00,
2013-04-02 17:50:00,62.2,44.8,30.07,SSW,202,7.4,10.3,53,0.00,,,0.00,WUHU21623XXSP,2013-04-03 00:50:00,
2013-04-02 17:56:00,62.1,44.7,30.07,SW,225,8.9,10.5,53,0.00,,,0.00,WUHU21623XXSP,2013-04-03 00:56:00,
2013-04-02 18:01:00,62.2,44.8,30.07,SW,225,10.1,10.5,53,0.00,,,0.00,WUHU21623XXSP,2013-04-03 01:01:00,
2013-04-02 18:06:00,62.8,45.4,30.08,WSW,247,11.2,11.2,53,0.00,,,0.00,WUHU21623XXSP,2013-04-03 01:06:00,
2013-04-02 18:12:00,63.1,45.7,30.08,WSW,247,7.2,11.2,53,0.00,,,0.00,WUHU21623XXSP,2013-04-03 01:12:00,
2013-04-02 18:16:00,63.5,45.5,30.07,WSW,247,7.2,7.2,52,0.00,,,0.00,WUHU21623XXSP,2013-04-03 01:16:00,
2013-04-02 18:22:00,63.7,45.7,30.07,SW,225,0.0,7.2,52,0.00,,,0.00,WUHU21623XXSP,2013-04-03 01:22:00,
2013-04-02 18:27:00,64.0,45.4,30.07,SW,225,8.1,8.1,51,0.00,,,0.00,WUHU21623XXSP,2013-04-03 01:27:00,
2013-04-02 18:32:00,63.7,45.2,30.07,WSW,247,6.7,8.1,51,0.00,,,0.00,WUHU21623XXSP,2013-04-03 01:32:00,
2013-04-02 18:37:00,63.1,45.1,30.07,WSW,247,6.3,6.7,52,0.00,,,0.00,WUHU21623XXSP,2013-04-03 01:37:00,
2013-04-02 18:42:00,62.4,44.5,30.07,WSW,247,7.6,7.6,52,0.00,,,0.00,WUHU21623XXSP,2013-04-03 01:42:00,
2013-04-02 18:47:00,62.1,44.7,30.07,WSW,247,0.0,7.6,53,0.00,,,0.00,WUHU21623XXSP,2013-04-03 01:47:00,
2013-04-02 18:52:00,61.3,44.0,30.07,WSW,247,0.0,0.0,53,0.00,,,0.00,WUHU21623XXSP,2013-04-03 01:52:00,
2013-04-02 18:57:00,60.4,43.6,30.07,WSW,247,0.0,0.0,54,0.00,,,0.00,WUHU21623XXSP,2013-04-03 01:57:00,
2013-04-02 19:02:00,59.5,42.8,30.07,WSW,247,0.0,0.0,54,0.00,,,0.00,WUHU21623XXSP,2013-04-03 02:02:00,
2013-04-02 19:07:00,58.8,42.6,30.07,WSW,247,0.0,0.0,55,0.00,,,0.00,WUHU21623XXSP,2013-04-03 02:07:00,
2013-04-02 19:12:00,57.4,41.8,30.07,SW,225,0.0,0.0,56,0.00,,,0.00,WUHU21623XXSP,2013-04-03 02:12:00,
2013-04-02 19:17:00,56.8,41.7,30.07,SSW,202,0.0,0.0,57,0.00,,,0.00,WUHU21623XXSP,2013-04-03 02:17:00,
2013-04-02 19:22:00,56.1,42.0,30.07,SW,225,0.0,0.0,59,0.00,,,0.00,WUHU21623XXSP,2013-04-03 02:22:00,
2013-04-02 19:27:00,55.6,42.0,30.07,SW,225,3.4,3.4,60,0.00,,,0.00,WUHU21623XXSP,2013-04-03 02:27:00,
2013-04-02 19:32:00,55.2,42.0,30.07,SSW,202,0.0,6.9,61,0.00,,,0.00,WUHU21623XXSP,2013-04-03 02:32:00,
2013-04-02 19:37:00,55.0,42.7,30.07,SSW,202,3.4,6.9,63,0.00,,,0.00,WUHU21623XXSP,2013-04-03 02:37:00,
2013-04-02 19:43:00,54.7,43.2,30.07,South,180,7.4,7.4,65,0.00,,,0.00,WUHU21623XXSP,2013-04-03 02:43:00,
2013-04-02 19:48:00,54.5,43.0,30.07,SSW,202,7.6,7.6,65,0.00,,,0.00,WUHU21623XXSP,2013-04-03 02:48:00,
2013-04-02 19:53:00,54.3,43.2,30.07,SSW,202,6.9,7.6,66,0.00,,,0.00,WUHU21623XXSP,2013-04-03 02:53:00,
2013-04-02 19:54:00,54.0,42.9,30.07,SSW,202,11.9,11.9,66,0.00,,,0.00,WUHU21623XXSP,2013-04-03 02:54:00,
2013-04-02 19:58:00,54.0,43.3,30.07,SSW,202,11.9,11.9,67,0.00,,,0.00,WUHU21623XXSP,2013-04-03 02:58:00,
2013-04-02 20:03:00,53.8,43.1,30.07,SSW,202,6.9,11.9,67,0.00,,,0.00,WUHU21623XXSP,2013-04-03 03:03:00,
2013-04-02 20:05:00,53.4,43.1,30.07,SSW,202,6.9,7.4,68,0.00,,,0.00,WUHU21623XXSP,2013-04-03 03:05:00,
2013-04-02 20:09:00,53.2,43.0,30.07,SSW,202,8.1,8.1,68,0.00,,,0.00,WUHU21623XXSP,2013-04-03 03:09:00,
2013-04-02 20:14:00,52.9,42.7,30.07,SSW,202,8.3,8.3,68,0.00,,,0.00,WUHU21623XXSP,2013-04-03 03:14:00,
2013-04-02 20:19:00,52.7,42.9,30.07,SSW,202,6.5,10.7,69,0.00,,,0.00,WUHU21623XXSP,2013-04-03 03:19:00,
2013-04-02 20:24:00,52.5,42.7,30.07,SSW,202,6.7,10.7,69,0.00,,,0.00,WUHU21623XXSP,2013-04-03 03:24:00,
2013-04-02 20:29:00,52.3,42.8,30.08,SSW,202,2.9,10.7,70,0.00,,,0.00,WUHU21623XXSP,2013-04-03 03:29:00,
2013-04-02 20:34:00,52.2,42.7,30.08,South,180,0.0,10.7,70,0.00,,,0.00,WUHU21623XXSP,2013-04-03 03:34:00,
2013-04-02 20:39:00,51.6,42.9,30.08,South,180,0.0,2.7,72,0.00,,,0.00,WUHU21623XXSP,2013-04-03 03:39:00,
2013-04-02 20:44:00,51.1,42.8,30.09,SSE,157,7.2,7.8,73,0.00,,,0.00,WUHU21623XXSP,2013-04-03 03:44:00,
2013-04-02 20:49:00,50.5,42.5,30.08,SSE,157,5.6,7.8,74,0.00,,,0.00,WUHU21623XXSP,2013-04-03 03:49:00,
2013-04-02 20:54:00,49.8,42.2,30.09,SSE,157,4.7,5.6,75,0.00,,,0.00,WUHU21623XXSP,2013-04-03 03:54:00,
2013-04-02 20:59:00,49.6,42.3,30.08,SSE,157,8.3,8.5,76,0.00,,,0.00,WUHU21623XXSP,2013-04-03 03:59:00,
2013-04-02 21:00:00,49.6,42.3,30.08,SSE,157,8.3,8.5,76,0.00,,,0.00,WUHU21623XXSP,2013-04-03 04:00:00,
2013-04-02 21:05:00,49.3,42.1,30.09,South,180,8.3,8.5,76,0.00,,,0.00,WUHU21623XXSP,2013-04-03 04:05:00,
2013-04-02 21:07:00,49.3,42.1,30.09,South,180,6.0,8.3,76,0.00,,,0.00,WUHU21623XXSP,2013-04-03 04:07:00,
2013-04-02 21:10:00,49.3,42.1,30.09,South,180,11.0,11.0,76,0.00,,,0.00,WUHU21623XXSP,2013-04-03 04:10:00,
2013-04-02 21:15:00,49.3,42.1,30.09,South,180,11.0,11.0,76,0.00,,,0.00,WUHU21623XXSP,2013-04-03 04:15:00,
2013-04-02 21:20:00,49.3,42.4,30.08,South,180,6.5,11.0,77,0.00,,,0.00,WUHU21623XXSP,2013-04-03 04:20:00,
2013-04-02 21:25:00,49.3,42.7,30.08,South,180,11.2,11.2,78,0.00,,,0.00,WUHU21623XXSP,2013-04-03 04:25:00,
2013-04-02 21:30:00,49.6,43.0,30.08,South,180,9.6,11.2,78,0.00,,,0.00,WUHU21623XXSP,2013-04-03 04:30:00,
2013-04-02 21:35:00,49.6,43.0,30.08,South,180,13.4,13.4,78,0.00,,,0.00,WUHU21623XXSP,2013-04-03 04:35:00,
2013-04-02 21:40:00,49.6,43.0,30.08,South,180,8.5,13.4,78,0.00,,,0.00,WUHU21623XXSP,2013-04-03 04:40:00,
2013-04-02 21:45:00,49.5,42.9,30.08,South,180,7.6,10.3,78,0.00,,,0.00,WUHU21623XXSP,2013-04-03 04:45:00,
2013-04-02 21:50:00,49.1,42.8,30.08,South,180,9.8,10.3,79,0.00,,,0.00,WUHU21623XXSP,2013-04-03 04:50:00,
2013-04-02 21:55:00,48.9,42.6,30.08,South,180,7.6,9.8,79,0.00,,,0.00,WUHU21623XXSP,2013-04-03 04:55:00,
2013-04-02 22:00:00,48.6,42.4,30.08,South,180,8.9,8.9,79,0.00,,,0.00,WUHU21623XXSP,2013-04-03 05:00:00,
2013-04-02 22:05:00,48.2,42.0,30.08,South,180,7.8,8.9,79,0.00,,,0.00,WUHU21623XXSP,2013-04-03 05:05:00,
2013-04-02 22:10:00,48.2,42.0,30.08,South,180,7.8,8.3,79,0.00,,,0.00,WUHU21623XXSP,2013-04-03 05:10:00,
2013-04-02 22:15:00,48.0,42.1,30.08,South,180,7.8,8.3,80,0.00,,,0.00,WUHU21623XXSP,2013-04-03 05:15:00,
2013-04-02 22:20:00,48.0,41.8,30.08,SSW,202,6.9,7.8,79,0.00,,,0.00,WUHU21623XXSP,2013-04-03 05:20:00,
2013-04-02 22:25:00,47.7,41.8,30.08,SSW,202,6.9,7.8,80,0.00,,,0.00,WUHU21623XXSP,2013-04-03 05:25:00,
2013-04-02 22:30:00,47.7,41.8,30.08,South,180,8.3,8.3,80,0.00,,,0.00,WUHU21623XXSP,2013-04-03 05:30:00,
2013-04-02 22:35:00,47.7,42.1,30.08,South,180,8.3,12.3,81,0.00,,,0.00,WUHU21623XXSP,2013-04-03 05:35:00,
2013-04-02 22:40:00,47.5,41.6,30.08,South,180,7.8,12.3,80,0.00,,,0.00,WUHU21623XXSP,2013-04-03 05:40:00,
2013-04-02 22:45:00,47.5,41.9,30.08,SSW,202,11.2,11.2,81,0.00,,,0.00,WUHU21623XXSP,2013-04-03 05:45:00,
2013-04-02 22:50:00,47.7,41.8,30.09,SSW,202,9.2,11.2,80,0.00,,,0.00,WUHU21623XXSP,2013-04-03 05:50:00,
2013-04-02 22:55:00,47.7,41.8,30.08,SSW,202,4.7,11.2,80,0.00,,,0.00,WUHU21623XXSP,2013-04-03 05:55:00,
2013-04-02 23:00:00,47.5,41.6,30.08,SSW,202,7.8,7.8,80,0.00,,,0.00,WUHU21623XXSP,2013-04-03 06:00:00,
2013-04-02 23:05:00,47.1,41.2,30.08,South,180,11.4,11.4,80,0.00,,,0.00,WUHU21623XXSP,2013-04-03 06:05:00,
2013-04-02 23:10:00,47.1,41.5,30.08,South,180,8.7,11.4,81,0.00,,,0.00,WUHU21623XXSP,2013-04-03 06:10:00,
2013-04-02 23:15:00,46.9,41.3,30.08,South,180,8.7,8.7,81,0.00,,,0.00,WUHU21623XXSP,2013-04-03 06:15:00,
2013-04-02 23:20:00,46.9,41.3,30.09,South,180,6.9,8.7,81,0.00,,,0.00,WUHU21623XXSP,2013-04-03 06:20:00,
2013-04-02 23:25:00,46.9,41.3,30.09,SSW,202,7.2,8.5,81,0.00,,,0.00,WUHU21623XXSP,2013-04-03 06:25:00,
2013-04-02 23:30:00,46.9,41.3,30.09,SSW,202,5.8,7.2,81,0.00,,,0.00,WUHU21623XXSP,2013-04-03 06:30:00,
2013-04-02 23:35:00,46.6,41.0,30.09,SSW,202,7.4,8.3,81,0.00,,,0.00,WUHU21623XXSP,2013-04-03 06:35:00,
2013-04-02 23:40:00,46.6,41.3,30.09,South,180,7.4,9.6,82,0.00,,,0.00,WUHU21623XXSP,2013-04-03 06:40:00,
2013-04-02 23:45:00,46.6,41.3,30.09,South,180,8.5,9.6,82,0.00,,,0.00,WUHU21623XXSP,2013-04-03 06:45:00,
2013-04-02 23:50:00,46.2,41.0,30.08,South,180,10.1,10.1,82,0.00,,,0.00,WUHU21623XXSP,2013-04-03 06:50:00,
2013-04-02 23:55:00,46.0,40.8,30.08,SSW,202,6.9,10.1,82,0.00,,,0.00,WUHU21623XXSP,2013-04-03 06:55:00,